Location: Zagreb
(45.8000°N, 16.0000°E)
Time: 19:34:21
(UTC+02:00)

A-11 Canister half - Pass Details

Date: 11 August 2022
Orbit: 1524 x 1684 km, 47.3° (Epoch: 05 October)

Event Time Altitude Azimuth Distance (km) Brightness Sun altitude
Rises 10:44:02 0° 284° (WNW) 4,941 11.3 48.1°
Reaches altitude 10° 10:47:13 10° 284° (WNW) 3,947 10.9 48.5°
Maximum altitude 10:57:25 88° 197° (SSW) 1,666 10.2 49.9°
Drops below altitude 10° 11:07:21 10° 109° (ESE) 3,849 11.9 51.2°
Sets 11:10:25 0° 110° (ESE) 4,813 12.1 51.6°
